TimeEST,TemperatureF,Dew PointF,Humidity,Sea Level PressureIn,VisibilityMPH,Wind Direction,Wind SpeedMPH,Gust SpeedMPH,PrecipitationIn,Events,Conditions,WindDirDegrees,DateUTC
12:53 AM,55.9,34.0,44,30.21,10.0,Variable,5.8,-,N/A,,Clear,0,2012-11-11 05:53:00
1:53 AM,55.9,34.0,44,30.20,10.0,South,6.9,-,N/A,,Clear,180,2012-11-11 06:53:00
2:53 AM,55.9,34.0,44,30.22,10.0,South,4.6,-,N/A,,Clear,180,2012-11-11 07:53:00
3:53 AM,55.9,34.0,44,30.23,10.0,South,3.5,-,N/A,,Scattered Clouds,170,2012-11-11 08:53:00
4:53 AM,55.9,33.1,42,30.25,10.0,South,4.6,-,N/A,,Clear,180,2012-11-11 09:53:00
5:53 AM,55.0,34.0,45,30.27,10.0,South,6.9,-,N/A,,Clear,170,2012-11-11 10:53:00
6:53 AM,54.0,34.0,47,30.30,10.0,South,6.9,-,N/A,,Clear,180,2012-11-11 11:53:00
7:53 AM,54.0,34.0,47,30.31,10.0,South,8.1,-,N/A,,Clear,180,2012-11-11 12:53:00
8:53 AM,57.0,35.1,44,30.31,10.0,South,6.9,-,N/A,,Clear,180,2012-11-11 13:53:00
9:53 AM,62.1,37.0,39,30.30,10.0,SSW,11.5,17.3,N/A,,Clear,200,2012-11-11 14:53:00
10:53 AM,64.0,37.9,38,30.30,10.0,SSW,12.7,20.7,N/A,,Clear,210,2012-11-11 15:53:00
11:53 AM,64.0,36.0,35,30.27,10.0,South,13.8,19.6,N/A,,Clear,190,2012-11-11 16:53:00
12:53 PM,64.9,36.0,34,30.25,10.0,SW,9.2,24.2,N/A,,Clear,220,2012-11-11 17:53:00
1:53 PM,66.9,37.0,33,30.24,10.0,SSW,10.4,18.4,N/A,,Clear,210,2012-11-11 18:53:00
2:53 PM,64.9,36.0,34,30.22,10.0,South,4.6,-,N/A,,Clear,180,2012-11-11 19:53:00
3:53 PM,66.9,36.0,32,30.21,10.0,South,8.1,-,N/A,,Clear,170,2012-11-11 20:53:00
4:53 PM,64.0,35.1,34,30.21,10.0,Variable,3.5,-,N/A,,Clear,0,2012-11-11 21:53:00
5:53 PM,62.1,35.1,37,30.22,10.0,Variable,5.8,-,N/A,,Clear,0,2012-11-11 22:53:00
6:53 PM,63.0,35.1,35,30.20,10.0,Variable,6.9,-,N/A,,Clear,0,2012-11-11 23:53:00
7:53 PM,62.1,33.1,34,30.20,10.0,Variable,4.6,-,N/A,,Clear,0,2012-11-12 00:53:00
8:53 PM,61.0,33.1,35,30.18,10.0,Variable,3.5,-,N/A,,Clear,0,2012-11-12 01:53:00
9:53 PM,61.0,33.1,35,30.17,10.0,Variable,6.9,-,N/A,,Clear,0,2012-11-12 02:53:00
10:53 PM,60.1,34.0,38,30.16,10.0,SSE,5.8,-,N/A,,Clear,150,2012-11-12 03:53:00
11:53 PM,62.1,34.0,35,30.15,10.0,SSE,8.1,-,N/A,,Clear,160,2012-11-12 04:53:00